Lake Georgetown Weather Center

Moon Phase Calendar



Lake Georgetown Water Level
Online Cameras

 


      

Current Conditions in Serenada
7/25/2021 12:49:21 PM

92°F
Feels Like 98
Clear
Humidity
47%
Pressure
30"
Wind
1 mph (SSE)
Dew Point
69°F
UV Index
11/10 (Extreme)
Visibility
6 mi

Hourly Forecast

Date & Time Sun, Jul 25
12:00 PM
Sun, Jul 25
1:00 PM
Sun, Jul 25
2:00 PM
Sun, Jul 25
3:00 PM
Sun, Jul 25
4:00 PM
Sun, Jul 25
5:00 PM
Sun, Jul 25
6:00 PM
Sun, Jul 25
7:00 PM
Sun, Jul 25
8:00 PM
Sun, Jul 25
9:00 PM
Sun, Jul 25
10:00 PM
Sun, Jul 25
11:00 PM
Mon, Jul 26
12:00 AM
Mon, Jul 26
1:00 AM
Mon, Jul 26
2:00 AM
Mon, Jul 26
3:00 AM
Mon, Jul 26
4:00 AM
Mon, Jul 26
5:00 AM
Mon, Jul 26
6:00 AM
Mon, Jul 26
7:00 AM
Mon, Jul 26
8:00 AM
Mon, Jul 26
9:00 AM
Mon, Jul 26
10:00 AM
Mon, Jul 26
11:00 AM
Mon, Jul 26
12:00 PM
Mon, Jul 26
1:00 PM
Mon, Jul 26
2:00 PM
Mon, Jul 26
3:00 PM
Mon, Jul 26
4:00 PM
Mon, Jul 26
5:00 PM
Mon, Jul 26
6:00 PM
Mon, Jul 26
7:00 PM
Mon, Jul 26
8:00 PM
Mon, Jul 26
9:00 PM
Mon, Jul 26
10:00 PM
Mon, Jul 26
11:00 PM
Tue, Jul 27
12:00 AM
Tue, Jul 27
1:00 AM
Tue, Jul 27
2:00 AM
Tue, Jul 27
3:00 AM
Tue, Jul 27
4:00 AM
Tue, Jul 27
5:00 AM
Tue, Jul 27
6:00 AM
Tue, Jul 27
7:00 AM
Tue, Jul 27
8:00 AM
Tue, Jul 27
9:00 AM
Tue, Jul 27
10:00 AM
Tue, Jul 27
11:00 AM
Condition
Clear

Clear

Clear

Clear

Clear

Clear

Clear

Clear

Clear

Clear

Clear

Clear

Clear

Clear

Clear

Clouds

Clouds

Clouds

Clouds

Clouds

Clear

Clear

Clear

Clear

Clouds

Clouds

Clouds

Clouds

Clouds

Clouds

Clouds

Clouds

Clear

Clear

Clear

Clear

Clear

Clear

Clear

Clear

Clear

Clear

Clear

Clouds

Clouds

Clouds

Clouds

Clouds
Temperature 92°F92°F93°F94°F96°F97°F97°F95°F88°F84°F83°F82°F81°F80°F78°F77°F76°F75°F75°F74°F77°F81°F84°F88°F91°F93°F95°F97°F98°F98°F98°F95°F89°F85°F85°F83°F82°F81°F79°F78°F78°F77°F76°F76°F78°F82°F86°F89°F
Feels Like 96°F98°F97°F97°F97°F96°F95°F94°F89°F85°F84°F83°F83°F80°F79°F78°F77°F76°F76°F75°F77°F82°F85°F88°F90°F92°F94°F95°F95°F96°F95°F94°F88°F85°F84°F83°F82°F82°F79°F79°F78°F78°F77°F77°F79°F85°F88°F90°F
Cloudiness 1%1%1%1%0%1%1%1%0%0%0%0%0%0%5%21%18%16%14%12%1%1%0%2%16%30%59%68%56%59%58%50%6%6%4%3%3%3%0%0%1%1%7%12%20%21%15%11%
Visibility 6 mi6 mi6 mi6 mi6 mi6 mi6 mi6 mi6 mi6 mi6 mi6 mi6 mi6 mi6 mi6 mi6 mi6 mi6 mi6 mi6 mi6 mi6 mi6 mi6 mi6 mi6 mi6 mi6 mi6 mi6 mi6 mi6 mi6 mi6 mi6 mi6 mi6 mi6 mi6 mi6 mi6 mi6 mi6 mi6 mi6 mi6 mi6 mi
Precipitation 0%0%0%0%0%0%0%0%0%0%0%0%0%0%0%0%0%0%0%0%0%0%0%0%0%0%0%0%0%0%0%0%0%0%0%0%0%0%0%0%0%0%0%0%0%0%0%0%
Humidity 45%47%43%38%33%27%24%31%43%45%48%52%59%67%71%72%73%74%75%76%72%59%49%41%35%30%27%25%23%23%23%28%38%40%41%44%50%57%63%68%71%73%73%73%70%60%52%45%
Dew Point 68°F69°F67°F65°F62°F57°F55°F60°F62°F61°F61°F63°F65°F67°F68°F67°F67°F66°F66°F66°F67°F65°F63°F62°F60°F58°F56°F55°F54°F54°F54°F58°F60°F59°F58°F59°F61°F64°F66°F67°F67°F67°F67°F67°F67°F67°F66°F65°F
Pressure 30"30"30"29.97"29.94"29.91"29.88"29.85"29.85"29.88"29.88"29.91"29.91"29.91"29.94"29.94"29.91"29.94"29.94"29.94"29.97"29.97"29.97"29.97"29.97"29.94"29.91"29.88"29.88"29.85"29.85"29.85"29.88"29.88"29.91"29.91"29.91"29.91"29.91"29.91"29.91"29.94"29.94"29.97"29.97"30"30"30"
Wind Speed 7.2 mph6.8 mph6.7 mph7 mph7.3 mph7.7 mph8.5 mph8.6 mph8.4 mph8.7 mph9.5 mph10.6 mph11.9 mph10.1 mph8.6 mph8.4 mph8.9 mph8.1 mph8.1 mph7.5 mph6.5 mph8.9 mph8.7 mph7 mph6.4 mph5.9 mph5.1 mph4 mph3.9 mph4.9 mph6.2 mph7.5 mph9.2 mph11.4 mph11 mph9 mph9.2 mph9.2 mph8.6 mph8.3 mph8 mph7.6 mph7.2 mph7.3 mph7.6 mph8.9 mph7.4 mph6.5 mph
Wind
Direction
206°
SSW
192°
SSW
185°
S
179°
S
173°
S
174°
S
175°
S
171°
S
163°
SSE
166°
SSE
173°
S
177°
S
183°
S
191°
S
199°
SSW
202°
SSW
202°
SSW
208°
SSW
220°
SW
218°
SW
219°
SW
225°
SW
233°
SW
228°
SW
215°
SW
203°
SSW
196°
SSW
181°
S
154°
SSE
137°
SE
128°
SE
119°
ESE
125°
SE
144°
SE
152°
SSE
170°
S
176°
S
182°
S
195°
SSW
200°
SSW
208°
SSW
211°
SSW
218°
SW
226°
SW
228°
SW
227°
SW
225°
SW
208°
SSW

Daily Forecast

Date High Low Precip. Humidity
Today
Jul 25

Clear
97 °F
73 °F
0%
47%
Monday
Jul 26

Clouds
98 °F
74 °F
0%
30%
Tuesday
Jul 27

Clouds
96 °F
76 °F
0%
36%
Wednesday
Jul 28

Clouds
94 °F
77 °F
14%
41%
Thursday
Jul 29

Clear
95 °F
75 °F
6%
42%
Friday
Jul 30

Clear
95 °F
77 °F
0%
42%
Saturday
Jul 31

Clear
98 °F
77 °F
0%
40%
Sunday
Aug 1

Clear
100 °F
77 °F
0%
40%
Monday
Aug 2

Clouds
99 °F
77 °F
0%
37%
Tuesday
Aug 3

Clouds
99 °F
77 °F
0%
38%
Wednesday
Aug 4

Clear
100 °F
76 °F
0%
36%
Thursday
Aug 5

Clear
99 °F
76 °F
0%
36%
Friday
Aug 6

Rain
100 °F
77 °F
82%
35%
Saturday
Aug 7

Rain
98 °F
77 °F
66%
40%
Sunday
Aug 8

Rain
99 °F
75 °F
38%
40%
Monday
Aug 9

Rain
98 °F
78 °F
24%
38%

Temperature 8-14 Day Outlook



Precipitation 8-14 Day Outlook




Quick Links
Lake Georgetown News
Lake Georgetown Photos
Lake Georgetown Videos




About Us
Contact Us
Site Map
Search Site
Advertise With Us
   
Georgetown-TX.LakesOnline.com
THE LAKE GEORGETOWN WEBSITE

Copyright 2021, Lakes Online
Privacy    |    Legal